This demonstration page uses our WeatherBlox Daily Observations layout. Learn more.

Left ArrowRight Arrow

Hourly Observations for April 2, 2015

Temp ( °F °C ) Dew Point ( °F °C ) Humidity (%) Winds ( mph kmh ) Pressure ( in mb ) Visibility ( mi km ) Precip ( " mm )
12:15 am 00:15 Clear 39 4 32 undefined 75 75 N N/A 30.27 1025 10 16 N/A
12:35 am 00:35 Clear 37 3 32 undefined 81 81 N N/A 30.27 1025 10 16 N/A
12:55 am 00:55 Clear 36 2 32 undefined 87 87 S 5 7 30.27 1025 10 16 N/A
1:15 am 01:15 Clear 37 3 32 undefined 81 81 N N/A 30.27 1025 10 16 N/A
1:35 am 01:35 Clear 37 3 32 undefined 81 81 S 3 6 30.27 1025 10 16 N/A
1:55 am 01:55 Clear 32 undefined 32 undefined 100 100 WSW 5 7 30.27 1025 10 16 N/A
2:15 am 02:15 Clear 37 3 32 undefined 81 81 SSW 3 6 30.27 1025 10 16 N/A
2:35 am 02:35 Clear 41 5 32 undefined 70 70 S 6 9 30.27 1025 10 16 N/A
2:55 am 02:55 Clear 41 5 32 undefined 70 70 S 6 9 30.27 1025 10 16 N/A
3:15 am 03:15 Clear 39 4 32 undefined 75 75 S 8 13 30.27 1025 10 16 N/A
3:35 am 03:35 Clear 39 4 32 undefined 75 75 S 7 11 30.27 1025 10 16 N/A
3:55 am 03:55 Clear 39 4 32 undefined 75 75 S 7 11 30.27 1025 10 16 N/A
4:15 am 04:15 Clear 41 5 32 undefined 70 70 S 6 9 30.27 1025 10 16 N/A
4:35 am 04:35 Clear 41 5 32 undefined 70 70 S 7 11 30.27 1025 10 16 N/A
4:55 am 04:55 Clear 41 5 32 undefined 70 70 S 7 11 30.27 1025 10 16 N/A
5:15 am 05:15 Clear 41 5 32 undefined 70 70 S 12 19 30.27 1025 10 16 N/A
5:35 am 05:35 Clear 41 5 32 undefined 70 70 S 12 19 30.27 1025 10 16 N/A
5:55 am 05:55 Clear 41 5 32 undefined 70 70 S 12 19 30.27 1025 10 16 N/A
6:15 am 06:15 Clear 43 6 32 undefined 66 66 S 13 20 30.27 1025 10 16 N/A
6:35 am 06:35 Clear 41 5 32 undefined 70 70 S 13 20 30.27 1025 10 16 N/A
6:55 am 06:55 Sunny 41 5 34 1 76 76 S 12 19 30.27 1025 10 16 N/A
7:15 am 07:15 Sunny 41 5 34 1 76 76 S 12 19 30.27 1025 10 16 N/A
7:35 am 07:35 Sunny 41 5 34 1 76 76 S 10 17 30.30 1026 10 16 N/A
7:55 am 07:55 Sunny 43 6 34 1 71 71 S 12 19 30.27 1025 10 16 N/A
8:15 am 08:15 Sunny 45 7 36 2 71 71 S 10 17 30.27 1025 10 16 N/A
8:35 am 08:35 Sunny 46 8 36 2 66 66 S 12 19 30.27 1025 10 16 N/A
8:55 am 08:55 Sunny 48 9 36 2 62 62 S 10 17 30.27 1025 10 16 N/A
9:15 am 09:15 Sunny 50 10 37 3 62 62 S 17 28 30.27 1025 10 16 N/A
9:35 am 09:35 Sunny 52 11 37 3 58 58 SSW 20 31 30.24 1024 10 16 N/A
9:55 am 09:55 Sunny 54 12 37 3 54 54 SSW 16 26 30.21 1023 10 16 N/A
10:15 am 10:15 Sunny 55 13 37 3 51 51 SSW 21 33 30.21 1023 10 16 N/A
10:35 am 10:35 Sunny 57 14 37 3 48 48 SSW 18 30 30.21 1023 10 16 N/A
10:55 am 10:55 Sunny 59 15 39 4 48 48 S 23 37 30.18 1022 10 16 N/A
11:15 am 11:15 Sunny 59 15 41 5 51 51 S 24 39 30.18 1022 10 16 N/A
11:35 am 11:35 Sunny 61 16 41 5 48 48 SSW 22 35 30.15 1021 10 16 N/A
11:55 am 11:55 Sunny 63 17 41 5 45 45 SSW 23 37 30.15 1021 10 16 N/A
12:15 pm 12:15 Sunny 63 17 39 4 42 42 SSW 18 30 30.15 1021 10 16 N/A
12:35 pm 12:35 Sunny 64 18 39 4 40 40 S 24 39 30.15 1021 10 16 N/A
12:55 pm 12:55 Sunny 64 18 41 5 43 43 SSW 21 33 30.12 1020 10 16 N/A
1:15 pm 13:15 Sunny 68 20 41 5 38 38 SSW 22 35 30.12 1020 10 16 N/A
1:35 pm 13:35 Sunny 68 20 41 5 38 38 S 21 33 30.12 1020 10 16 N/A
1:55 pm 13:55 Sunny 68 20 41 5 38 38 SW 16 26 30.09 1019 10 16 N/A
2:15 pm 14:15 Sunny 68 20 43 6 40 40 SSW 20 31 30.09 1019 10 16 N/A
2:35 pm 14:35 Sunny 70 21 43 6 38 38 S 22 35 30.09 1019 10 16 N/A
2:55 pm 14:55 Sunny 72 22 43 6 36 36 S 20 31 30.06 1018 10 16 N/A
3:15 pm 15:15 Sunny 72 22 43 6 36 36 S 21 33 30.06 1018 10 16 N/A
3:35 pm 15:35 Sunny 72 22 43 6 36 36 S 21 33 30.03 1017 10 16 N/A
3:55 pm 15:55 Partly Cloudy 72 22 43 6 36 36 SSW 20 31 30.03 1017 10 16 N/A
4:15 pm 16:15 Partly Cloudy 72 22 45 7 38 38 SSW 21 33 30.03 1017 10 16 N/A
4:35 pm 16:35 Sunny 72 22 45 7 38 38 S 23 37 30.00 1016 10 16 N/A
4:55 pm 16:55 Sunny 72 22 45 7 38 38 SSW 20 31 30.00 1016 10 16 N/A
5:15 pm 17:15 Sunny 70 21 45 7 40 40 SSW 17 28 30.00 1016 10 16 N/A
5:35 pm 17:35 Sunny 70 21 45 7 40 40 SSW 17 28 30.00 1016 10 16 N/A
5:55 pm 17:55 Sunny 70 21 45 7 40 40 S 21 33 29.97 1015 10 16 N/A
6:15 pm 18:15 Sunny 70 21 45 7 40 40 S 14 22 29.97 1015 10 16 N/A
6:35 pm 18:35 Sunny 70 21 45 7 40 40 S 14 22 29.97 1015 10 16 N/A
6:55 pm 18:55 Sunny 70 21 45 7 40 40 S 14 22 29.97 1015 10 16 N/A
7:15 pm 19:15 Sunny 70 21 45 7 40 40 S 15 24 29.94 1014 10 16 N/A
7:35 pm 19:35 Clear 70 21 45 7 40 40 S 13 20 29.94 1014 10 16 N/A
7:55 pm 19:55 Clear 70 21 45 7 40 40 S 17 28 29.94 1014 10 16 N/A
8:15 pm 20:15 Clear 70 21 45 7 40 40 S 13 20 29.94 1014 10 16 N/A
8:35 pm 20:35 Clear 68 20 45 7 43 43 S 14 22 29.97 1015 10 16 N/A
8:55 pm 20:55 Clear 68 20 45 7 43 43 S 14 22 29.97 1015 10 16 N/A
9:15 pm 21:15 Clear 68 20 46 8 46 46 SSW 14 22 29.97 1015 10 16 N/A
9:35 pm 21:35 Clear 68 20 50 10 53 53 SSW 15 24 29.97 1015 10 16 N/A
9:55 pm 21:55 Partly Cloudy 68 20 50 10 53 53 SSW 17 28 29.97 1015 10 16 N/A
10:15 pm 22:15 Partly Cloudy 68 20 50 10 53 53 SSW 17 28 29.94 1014 10 16 N/A
10:35 pm 22:35 Partly Cloudy 68 20 50 10 53 53 SSW 18 30 29.94 1014 10 16 N/A
10:55 pm 22:55 Partly Cloudy 68 20 52 11 56 56 SSW 14 22 29.94 1014 10 16 N/A
11:15 pm 23:15 Partly Cloudy 68 20 54 12 60 60 SSW 15 24 29.94 1014 10 16 N/A
11:35 pm 23:35 Partly Cloudy 68 20 54 12 60 60 SSW 15 24 29.94 1014 10 16 N/A
11:55 pm 23:55 Partly Cloudy 68 20 55 13 64 64 SSW 16 26 29.94 1014 10 16 N/A

Powered by AerisWeather